• In India
  • List of Countries
  • For 7 days
  • Water Temperature
  • Satellite Maps
  • Weather Map
  • Weather Widgets
  • user-avatar
    Login

    Hourly Weather Bururi

    Today, 19 June, Tuesday

    Time Temperature Precipitation Wind Pressure Humidity
    00:00 +16°C° 0 mm 1 mps 617 mmHg 77%
    01:00 +15°C° 0 mm 1 mps 617 mmHg 78%
    02:00 +15°C° 0 mm 1 mps 617 mmHg 79%
    03:00 +15°C° 0 mm 1 mps 617 mmHg 79%
    04:00 +15°C° 0 mm 1 mps 617 mmHg 80%
    05:00 +15°C° 0 mm 1 mps 617 mmHg 80%
    06:00 +16°C° 0 mm 1 mps 618 mmHg 74%
    07:00 +18°C° 0 mm 1 mps 618 mmHg 69%
    08:00 +19°C° 0 mm 1 mps 619 mmHg 63%
    09:00 +19°C° 0 mm 2 mps 619 mmHg 58%
    10:00 +20°C° 0 mm 2 mps 619 mmHg 52%
    11:00 +22°C° 0 mm 3 mps 620 mmHg 47%
    12:00 +22°C° 0 mm 3 mps 619 mmHg 46%
    13:00 +24°C° 0 mm 3 mps 619 mmHg 45%
    14:00 +24°C° 0 mm 3 mps 619 mmHg 44%
    15:00 +22°C° 0 mm 3 mps 618 mmHg 46%
    16:00 +23°C° 0 mm 2 mps 618 mmHg 49%
    17:00 +21°C° 0 mm 2 mps 618 mmHg 51%
    18:00 +20°C° 0 mm 2 mps 617 mmHg 57%
    19:00 +18°C° 0 mm 2 mps 617 mmHg 64%
    20:00 +16°C° 0 mm 1 mps 617 mmHg 71%
    21:00 +16°C° 0 mm 1 mps 617 mmHg 71%
    22:00 +16°C° 0 mm 1 mps 618 mmHg 70%
    23:00 +16°C° 0 mm 2 mps 618 mmHg 70%

    Tomorrow, 20 June, Wednesday

    Time Temperature Precipitation Wind Pressure Humidity
    00:00 +16°C° 0 mm 2 mps 618 mmHg 69%
    01:00 +16°C° 0 mm 2 mps 618 mmHg 69%
    02:00 +16°C° 0 mm 1 mps 618 mmHg 68%
    03:00 +16°C° 0 mm 1 mps 618 mmHg 68%
    04:00 +15°C° 0 mm 1 mps 617 mmHg 69%
    05:00 +15°C° 0 mm 1 mps 617 mmHg 69%
    06:00 +16°C° 0 mm 1 mps 618 mmHg 65%
    07:00 +19°C° 0 mm 1 mps 619 mmHg 60%
    08:00 +20°C° 0 mm 1 mps 619 mmHg 56%
    09:00 +20°C° 0 mm 2 mps 620 mmHg 51%
    10:00 +21°C° 0 mm 2 mps 620 mmHg 46%
    11:00 +24°C° 0 mm 3 mps 621 mmHg 40%
    12:00 +24°C° 0 mm 3 mps 620 mmHg 40%
    13:00 +24°C° 0 mm 3 mps 620 mmHg 40%
    14:00 +25°C° 0 mm 3 mps 619 mmHg 39%
    15:00 +24°C° 0 mm 2 mps 619 mmHg 42%
    16:00 +24°C° 0 mm 2 mps 618 mmHg 44%
    17:00 +23°C° 0 mm 2 mps 618 mmHg 47%
    18:00 +20°C° 0 mm 2 mps 618 mmHg 52%
    19:00 +20°C° 0 mm 1 mps 618 mmHg 56%
    20:00 +18°C° 0 mm 1 mps 618 mmHg 61%
    21:00 +18°C° 0 mm 1 mps 618 mmHg 62%
    22:00 +18°C° 0 mm 1 mps 619 mmHg 62%
    23:00 +18°C° 0 mm 1 mps 619 mmHg 63%

    Day after tomorrow, 21 June, Thursday

    Time Temperature Precipitation Wind Pressure Humidity
    00:00 +18°C° 0.1 mm 1 mps 619 mmHg 64%
    01:00 +16°C° 0.1 mm 2 mps 618 mmHg 65%
    02:00 +16°C° 0.1 mm 2 mps 618 mmHg 66%
    03:00 +16°C° 0.1 mm 2 mps 618 mmHg 66%
    04:00 +16°C° 0.1 mm 1 mps 618 mmHg 67%
    05:00 +16°C° 0.1 mm 1 mps 618 mmHg 68%
    06:00 +18°C° 0.2 mm 1 mps 619 mmHg 66%
    07:00 +18°C° 0.2 mm 1 mps 619 mmHg 65%
    08:00 +19°C° 0.2 mm 1 mps 620 mmHg 63%
    09:00 +20°C° 0 mm 1 mps 620 mmHg 58%
    10:00 +21°C° 0 mm 2 mps 621 mmHg 52%
    11:00 +23°C° 0 mm 2 mps 621 mmHg 47%
    12:00 +24°C° 0 mm 2 mps 621 mmHg 46%
    13:00 +24°C° 0 mm 2 mps 620 mmHg 44%
    14:00 +25°C° 0 mm 3 mps 620 mmHg 42%
    15:00 +24°C° 0 mm 2 mps 619 mmHg 45%
    16:00 +23°C° 0 mm 2 mps 619 mmHg 48%
    17:00 +23°C° 0 mm 2 mps 618 mmHg 51%
    18:00 +20°C° 0.1 mm 2 mps 618 mmHg 57%
    19:00 +19°C° 0.1 mm 1 mps 618 mmHg 63%
    20:00 +18°C° 0.1 mm 1 mps 619 mmHg 68%
    21:00 +18°C° 0.1 mm 1 mps 619 mmHg 69%
    22:00 +16°C° 0.1 mm 1 mps 619 mmHg 70%
    23:00 +16°C° 0.1 mm 1 mps 619 mmHg 71%

    22 June, Friday

    Time Temperature Precipitation Wind Pressure Humidity
    00:00 +16°C° 0.1 mm 2 mps 619 mmHg 71%
    01:00 +16°C° 0.1 mm 2 mps 619 mmHg 71%
    02:00 +16°C° 0.1 mm 2 mps 618 mmHg 71%
    03:00 +16°C° 0.1 mm 2 mps 618 mmHg 71%
    04:00 +16°C° 0.1 mm 1 mps 619 mmHg 72%
    05:00 +16°C° 0.1 mm 1 mps 619 mmHg 72%
    06:00 +18°C° 0.2 mm 1 mps 619 mmHg 71%
    07:00 +18°C° 0.2 mm 1 mps 620 mmHg 70%
    08:00 +17°C° 0.2 mm 2 mps 621 mmHg 69%
    09:00 +19°C° 0.1 mm 2 mps 621 mmHg 65%
    10:00 +20°C° 0.1 mm 2 mps 621 mmHg 62%
    11:00 +21°C° 0.1 mm 2 mps 621 mmHg 58%
    12:00 +21°C° 0.1 mm 2 mps 621 mmHg 57%
    13:00 +23°C° 0.1 mm 2 mps 620 mmHg 55%
    14:00 +23°C° 0.1 mm 2 mps 619 mmHg 53%
    15:00 +23°C° 0.1 mm 2 mps 619 mmHg 55%
    16:00 +21°C° 0.1 mm 2 mps 619 mmHg 57%
    17:00 +21°C° 0.1 mm 2 mps 618 mmHg 58%
    18:00 +19°C° 0.1 mm 2 mps 618 mmHg 63%
    19:00 +18°C° 0.1 mm 2 mps 618 mmHg 68%
    20:00 +16°C° 0.1 mm 1 mps 618 mmHg 73%
    21:00 +16°C° 0 mm 1 mps 619 mmHg 74%
    22:00 +16°C° 0 mm 1 mps 619 mmHg 75%
    23:00 +16°C° 0 mm 2 mps 619 mmHg 76%

    23 June, Saturday

    Time Temperature Precipitation Wind Pressure Humidity
    00:00 +16°C° 0 mm 2 mps 618 mmHg 75%
    01:00 +16°C° 0 mm 2 mps 618 mmHg 75%
    02:00 +15°C° 0 mm 2 mps 617 mmHg 74%
    03:00 +15°C° 0 mm 2 mps 617 mmHg 75%
    04:00 +15°C° 0 mm 1 mps 617 mmHg 75%
    05:00 +15°C° 0 mm 1 mps 617 mmHg 76%
    06:00 +16°C° 0 mm 1 mps 618 mmHg 72%
    07:00 +18°C° 0 mm 1 mps 619 mmHg 67%
    08:00 +19°C° 0 mm 2 mps 620 mmHg 63%
    09:00 +20°C° 0 mm 2 mps 620 mmHg 59%
    10:00 +21°C° 0 mm 2 mps 620 mmHg 56%
    11:00 +23°C° 0 mm 2 mps 620 mmHg 52%
    12:00 +23°C° 0 mm 2 mps 619 mmHg 51%
    13:00 +24°C° 0 mm 2 mps 619 mmHg 50%
    14:00 +24°C° 0 mm 2 mps 618 mmHg 49%
    15:00 +23°C° 0.1 mm 2 mps 618 mmHg 51%
    16:00 +23°C° 0.1 mm 2 mps 618 mmHg 53%
    17:00 +21°C° 0.1 mm 2 mps 618 mmHg 55%
    18:00 +20°C° 0.1 mm 2 mps 618 mmHg 60%
    19:00 +19°C° 0.1 mm 1 mps 618 mmHg 65%
    20:00 +18°C° 0.1 mm 1 mps 618 mmHg 71%
    21:00 +16°C° 0 mm 1 mps 618 mmHg 71%
    22:00 +16°C° 0 mm 1 mps 618 mmHg 71%
    23:00 +16°C° 0 mm 1 mps 618 mmHg 71%

    24 June, Sunday

    Time Temperature Precipitation Wind Pressure Humidity
    00:00 +16°C° 0 mm 2 mps 617 mmHg 71%
    01:00 +15°C° 0 mm 2 mps 617 mmHg 71%
    02:00 +15°C° 0 mm 2 mps 616 mmHg 71%
    03:00 +15°C° 0 mm 2 mps 616 mmHg 72%
    04:00 +15°C° 0 mm 2 mps 616 mmHg 72%
    05:00 +15°C° 0 mm 2 mps 617 mmHg 72%
    06:00 +16°C° 0 mm 2 mps 617 mmHg 68%
    07:00 +19°C° 0 mm 1 mps 618 mmHg 63%
    08:00 +20°C° 0 mm 1 mps 619 mmHg 59%
    09:00 +20°C° 0 mm 2 mps 619 mmHg 55%
    10:00 +23°C° 0 mm 2 mps 619 mmHg 50%
    11:00 +24°C° 0 mm 3 mps 619 mmHg 46%
    12:00 +24°C° 0 mm 3 mps 619 mmHg 45%
    13:00 +24°C° 0 mm 3 mps 618 mmHg 45%
    14:00 +24°C° 0 mm 2 mps 618 mmHg 44%
    15:00 +24°C° 0 mm 2 mps 618 mmHg 46%
    16:00 +23°C° 0 mm 2 mps 618 mmHg 48%
    17:00 +23°C° 0 mm 2 mps 617 mmHg 50%
    18:00 +20°C° 0 mm 2 mps 617 mmHg 55%
    19:00 +20°C° 0 mm 1 mps 617 mmHg 60%
    20:00 +18°C° 0 mm 1 mps 617 mmHg 66%
    21:00 +18°C° 0 mm 1 mps 617 mmHg 66%
    22:00 +16°C° 0 mm 1 mps 617 mmHg 66%
    23:00 +16°C° 0 mm 1 mps 617 mmHg 66%
    Show more